[[{"header":{"parameterUnit":"m.s-1","parameterCategory":1,"la1":30.2991,"la2":30.254,"lo1":-89.0895,"lo2":-89.0444,"dy":0.0017,"dx":0.0017,"nx":28,"ny":28,"refTime":"2024-02-22T03:00:00:Z","depth":0,"parameterNumber":2,"parameterNumberName":"U-component_of_WINDS"},"data":[0,0,0,0,0,0,0,0,0,0,0,0,0,0,0,0,0,0,0,0,0,0,0,0,0,0,0,0,0,0,0,0,0,0,0,0,0,0,0,0,0,0,0,0,0,0,0,0,0,0,0,0,0,0,0,0,0,0,3.7082,3.7082,0,3.7129,3.713,3.713,3.7128,3.7127,3.7127,3.7126,3.7175,3.7177,3.7178,0,0,0,0,0,0,0,0,0,0,0,0,0,3.6993,3.6995,3.7082,3.7082,3.7083,3.7129,3.713,3.713,3.7128,3.7127,3.7127,3.7126,3.7174,3.7176,3.7179,0,0,0,0,0,0,0,0,0,0,0,0,0,3.7035,3.6995,3.7082,3.7088,3.7089,3.7129,3.713,3.713,3.7128,3.7127,3.7126,3.7125,3.7173,3.7176,3.7179,3.7216,0,0,3.7188,3.7189,0,0,0,0,0,0,0,0,3.7033,3.7038,3.7086,3.7087,3.7088,3.7122,3.7116,3.7159,3.7129,3.7113,3.7126,3.7125,3.7158,3.7162,3.7173,3.7219,3.7221,3.7188,3.719,3.7191,3.7192,0,0,0,0,0,0,0,3.703,3.7036,3.71,3.7087,3.7088,3.7089,3.7094,3.7124,3.7141,3.7115,3.7114,3.712,3.7158,3.717,3.7174,3.7222,3.7188,3.719,3.7192,3.7193,3.7305,3.7306,0,0,0,0,0,0,3.7025,3.7034,3.7099,3.7102,3.7058,3.7091,3.7097,3.7112,3.714,3.7144,3.7121,3.712,3.7166,3.7171,3.7176,3.7224,3.7191,3.7194,3.7195,3.7303,3.7305,3.7306,0,0,0,0,0,0,3.7024,3.7031,3.7097,3.7068,3.7076,3.7094,3.7111,3.7113,3.7125,3.7145,3.7148,3.713,3.7165,3.7172,3.7207,3.7225,3.7195,3.7197,3.7302,3.7304,3.7306,3.7319,0,0,0,0,0,0,3.7021,3.7031,3.7044,3.7068,3.7078,3.7127,3.7112,3.7115,3.713,3.7129,3.7154,3.7157,3.7165,3.7203,3.721,3.7229,3.72,3.73,3.7303,3.7305,3.7317,3.7321,3.7324,0,0,0,0,0,3.7018,3.7045,3.7045,3.7052,3.7095,3.7128,3.7133,3.7141,3.7132,3.7146,3.716,3.7157,3.7222,3.7207,3.7215,3.7234,3.7299,3.7302,3.7305,3.7315,3.732,3.7324,0,0,0,0,0,0,3.7021,3.7048,3.7048,3.7084,3.7104,3.7127,3.7145,3.7146,3.7169,3.7167,3.7176,3.7182,3.7218,3.723,3.7212,3.7274,3.726,3.7264,3.7265,3.727,3.7274,3.727,3.7202,0,0,0,0,0,3.7027,3.705,3.7073,3.7102,3.7112,3.7128,3.7142,3.7147,3.7168,3.7176,3.7192,3.7212,3.7238,3.7255,3.7279,3.7319,3.7326,3.7337,3.7341,3.7344,3.7348,3.7373,3.7378,3.7315,3.7315,3.7315,0,0,3.7037,3.7055,3.7069,3.7104,3.7119,3.7145,3.7134,3.7161,3.7181,3.718,3.7215,3.7228,3.7252,3.729,3.7308,3.7301,3.7367,3.7347,3.735,3.7352,3.7376,3.7382,3.7387,3.7317,3.7317,3.7317,0,0,3.7069,3.7084,3.7112,3.7129,3.7154,3.7164,3.7171,3.7196,3.7204,3.724,3.7241,3.7265,3.7308,3.7326,3.7341,3.7385,3.7384,3.7393,3.7412,3.7437,3.7442,3.7446,3.7463,3.7469,3.7397,3.7397,3.7397,0,3.7079,3.7117,3.7126,3.7154,3.717,3.7172,3.7202,3.7218,3.7249,3.7261,3.7253,3.731,3.7326,3.7371,3.7382,3.7393,3.7403,3.7389,3.744,3.7445,3.7449,3.7466,3.7472,3.7398,3.7397,3.7397,3.7397,0,3.7129,3.7156,3.7176,3.7207,3.7226,3.7254,3.7269,3.7287,3.7291,3.7303,3.7341,3.7361,3.7391,3.7402,3.7406,3.7448,3.7444,3.7438,3.7423,3.7456,3.7472,3.7478,3.7399,3.7399,3.7398,3.7398,0,0,3.7163,3.7201,3.7209,3.7224,3.7254,3.7275,3.7305,3.7335,3.7351,3.7374,3.74,3.7439,3.7435,3.7452,3.7459,3.748,3.7516,3.7472,3.7473,3.7481,3.7567,3.7571,3.7578,3.7516,3.7517,3.7518,3.7565,0,3.7199,3.7251,3.7262,3.7308,3.7334,3.7339,3.7365,3.7387,3.74,3.7425,3.7439,3.7467,3.7459,3.747,3.7491,3.7507,3.7534,3.7504,3.7542,3.7543,3.7536,3.7586,3.759,3.7633,3.7571,3.7572,3.7573,0,3.7247,3.7273,3.7322,3.7351,3.7362,3.7385,3.7416,3.7439,3.7465,3.7473,3.7494,3.7499,3.7533,3.7518,3.7565,3.7544,3.7561,3.7572,3.7574,3.7578,3.756,3.7592,3.7647,3.7653,3.7583,3.7582,3.7581,0,3.7269,3.7315,3.7351,3.7364,3.7399,3.7416,3.7431,3.7456,3.7474,3.7501,3.7514,3.7544,3.7561,3.7585,3.7599,3.7586,3.7646,3.7631,3.7655,3.7655,3.7667,3.7666,3.7725,3.7677,3.7677,3.7677,3.7676,0,3.7308,3.7338,3.7362,3.7384,3.7419,3.7432,3.7466,3.7482,3.7505,3.7531,3.7537,3.7562,3.7578,3.7606,3.7618,3.7657,3.7664,3.7672,3.7675,3.7672,3.7671,3.7683,3.768,3.7678,3.7678,3.7678,3.7677,0,3.7337,3.7354,3.7394,3.7424,3.7433,3.7457,3.7484,3.7506,3.7521,3.7554,3.7563,3.7586,3.7619,3.7636,3.7677,3.7685,3.7729,3.773,3.7721,3.7722,3.7745,3.7743,3.7814,3.7825,3.7769,3.7769,3.777,0,3.7361,3.7385,3.7419,3.7437,3.7453,3.7482,3.7502,3.7517,3.7537,3.7571,3.759,3.7624,3.7652,3.7706,3.7727,3.7759,3.7761,3.7784,3.7766,3.7763,3.7763,3.7762,3.7765,3.7787,3.7788,3.7788,3.7789,0,3.7403,3.7411,3.7439,3.7471,3.7495,3.752,3.7545,3.7561,3.758,3.7603,3.7638,3.766,3.7704,3.7738,3.7773,3.779,3.7794,3.7795,3.7802,3.7799,3.7793,3.7798,3.773,3.7792,3.7792,3.7792,3.7792,3.7791,3.7431,3.7454,3.7482,3.7514,3.7535,3.7559,3.7583,3.7601,3.763,3.7667,3.7675,3.7712,3.7741,3.7789,3.7807,3.7838,3.7833,3.7843,3.7846,3.7848,3.785,3.7789,3.7844,3.7844,3.7844,3.7844,3.7844,0,3.7475,3.7494,3.7523,3.7559,3.7585,3.7587,3.7616,3.7638,3.7671,3.7697,3.7725,3.7767,3.7802,3.7826,3.7862,3.7882,3.7885,3.7891,3.789,3.7894,3.7852,3.7843,3.7888,3.7888,3.7888,3.7888,3.7888,3.7888,3.75,3.7539,3.7551,3.7601,3.762,3.7657,3.7674,3.7697,3.7719,3.7765,3.7794,3.781,3.7837,3.7876,3.7908,3.7915,3.7928,3.7934,3.7941,3.7901,3.7897,3.7892,3.7883,3.7937,3.7937,3.7981,3.7981,3.7982]},{"header":{"parameterUnit":"m.s-1","parameterCategory":1,"la1":30.2991,"la2":30.254,"lo1":-89.0895,"lo2":-89.0444,"dy":0.0017,"dx":0.0017,"nx":28,"ny":28,"refTime":"2024-02-22T03:00:00:Z","depth":0,"parameterNumber":3,"parameterNumberName":"V-component_of_WINDS"},"data":[0,0,0,0,0,0,0,0,0,0,0,0,0,0,0,0,0,0,0,0,0,0,0,0,0,0,0,0,0,0,0,0,0,0,0,0,0,0,0,0,0,0,0,0,0,0,0,0,0,0,0,0,0,0,0,0,0,0,-5.1454,-5.1454,0,-5.1384,-5.1383,-5.1382,-5.1388,-5.1389,-5.139,-5.1391,-5.131,-5.1307,-5.1303,0,0,0,0,0,0,0,0,0,0,0,0,0,-5.1588,-5.1586,-5.1455,-5.1454,-5.1453,-5.1384,-5.1383,-5.1382,-5.1388,-5.1389,-5.1391,-5.1392,-5.1311,-5.1307,-5.1303,0,0,0,0,0,0,0,0,0,0,0,0,0,-5.1525,-5.1585,-5.1455,-5.1448,-5.1446,-5.1384,-5.1383,-5.1381,-5.1388,-5.1389,-5.1391,-5.1392,-5.1312,-5.1307,-5.1303,-5.124,0,0,-5.1288,-5.1286,0,0,0,0,0,0,0,0,-5.1528,-5.152,-5.145,-5.1448,-5.1447,-5.1397,-5.14,-5.1334,-5.1387,-5.141,-5.1391,-5.1393,-5.1337,-5.133,-5.1313,-5.1236,-5.1232,-5.1288,-5.1285,-5.1283,-5.1281,0,0,0,0,0,0,0,-5.1533,-5.1523,-5.1426,-5.1449,-5.1447,-5.1446,-5.1439,-5.1387,-5.1364,-5.1408,-5.1408,-5.14,-5.1336,-5.1317,-5.1311,-5.1231,-5.1288,-5.1283,-5.128,-5.1279,-5.1099,-5.1097,0,0,0,0,0,0,-5.154,-5.1526,-5.1428,-5.1424,-5.1493,-5.1442,-5.1434,-5.1411,-5.1365,-5.136,-5.1399,-5.1401,-5.1325,-5.1316,-5.1308,-5.1231,-5.1283,-5.1278,-5.1275,-5.1101,-5.1098,-5.1096,0,0,0,0,0,0,-5.1543,-5.1531,-5.1431,-5.1475,-5.1463,-5.1438,-5.1412,-5.1408,-5.139,-5.1358,-5.1353,-5.1384,-5.1326,-5.1315,-5.1257,-5.1228,-5.1276,-5.1272,-5.1103,-5.11,-5.1097,-5.1076,0,0,0,0,0,0,-5.1547,-5.1532,-5.1509,-5.1475,-5.146,-5.1384,-5.141,-5.1406,-5.1383,-5.1384,-5.1343,-5.1338,-5.1326,-5.1264,-5.1252,-5.1222,-5.1268,-5.1105,-5.1102,-5.1098,-5.1079,-5.1073,-5.1068,0,0,0,0,0,-5.1551,-5.1504,-5.1508,-5.1496,-5.1432,-5.1382,-5.1373,-5.1363,-5.138,-5.1356,-5.1336,-5.1339,-5.1234,-5.1258,-5.1245,-5.1213,-5.1107,-5.1103,-5.1099,-5.1082,-5.1074,-5.1068,0,0,0,0,0,0,-5.1532,-5.1499,-5.1503,-5.1444,-5.1417,-5.1383,-5.1352,-5.1355,-5.1319,-5.1322,-5.1308,-5.1299,-5.1241,-5.1221,-5.1249,-5.115,-5.1172,-5.1165,-5.1164,-5.1157,-5.1151,-5.1156,-5.1264,0,0,0,0,0,-5.1522,-5.1487,-5.1459,-5.1409,-5.1396,-5.1377,-5.1354,-5.135,-5.1319,-5.1306,-5.1281,-5.1249,-5.1209,-5.1182,-5.1143,-5.1078,-5.1068,-5.1049,-5.1043,-5.1038,-5.1031,-5.0995,-5.0986,-5.1083,-5.1083,-5.1083,0,0,-5.1498,-5.1476,-5.1454,-5.1405,-5.1383,-5.1344,-5.1366,-5.1324,-5.1295,-5.1298,-5.1243,-5.1225,-5.1187,-5.1126,-5.1097,-5.1107,-5.1003,-5.1033,-5.103,-5.1025,-5.0989,-5.098,-5.0972,-5.108,-5.108,-5.1081,0,0,-5.1436,-5.1417,-5.1373,-5.1351,-5.1319,-5.1307,-5.1297,-5.1264,-5.1252,-5.1198,-5.12,-5.1164,-5.1094,-5.1068,-5.1045,-5.0976,-5.0977,-5.0964,-5.0932,-5.0896,-5.0888,-5.0881,-5.0855,-5.0846,-5.0957,-5.0957,-5.0957,0,-5.1409,-5.1355,-5.1349,-5.1308,-5.1286,-5.1292,-5.1246,-5.1224,-5.1179,-5.1163,-5.1176,-5.109,-5.1066,-5.0998,-5.0981,-5.0963,-5.0949,-5.0967,-5.0891,-5.0883,-5.0877,-5.0851,-5.0842,-5.0956,-5.0956,-5.0956,-5.0956,0,-5.1324,-5.1285,-5.1254,-5.1214,-5.1189,-5.1145,-5.1132,-5.1106,-5.1104,-5.109,-5.1034,-5.1006,-5.0961,-5.0945,-5.0941,-5.0876,-5.0884,-5.0894,-5.0916,-5.0866,-5.0842,-5.0832,-5.0954,-5.0954,-5.0955,-5.0955,0,0,-5.1243,-5.1205,-5.1193,-5.1175,-5.1141,-5.111,-5.1067,-5.1026,-5.1004,-5.0973,-5.0935,-5.0878,-5.0888,-5.0863,-5.0856,-5.0825,-5.0771,-5.0839,-5.0838,-5.0826,-5.0696,-5.0687,-5.0676,-5.0773,-5.0771,-5.077,-5.0699,0,-5.1176,-5.1103,-5.1098,-5.1031,-5.0995,-5.1001,-5.0963,-5.0936,-5.0923,-5.0888,-5.0872,-5.0832,-5.0849,-5.0834,-5.0804,-5.0784,-5.0744,-5.0789,-5.0734,-5.0732,-5.0741,-5.0664,-5.0653,-5.0588,-5.0689,-5.0688,-5.0687,0,-5.1087,-5.1058,-5.0988,-5.096,-5.0944,-5.0911,-5.0874,-5.0842,-5.0812,-5.0804,-5.0778,-5.0776,-5.0729,-5.0756,-5.069,-5.0721,-5.0699,-5.0686,-5.0683,-5.0675,-5.0704,-5.0651,-5.0567,-5.0556,-5.0672,-5.0673,-5.0674,0,-5.1034,-5.0977,-5.0928,-5.0912,-5.0879,-5.0855,-5.0839,-5.0812,-5.0788,-5.0755,-5.0739,-5.0701,-5.0679,-5.0648,-5.0635,-5.0656,-5.0569,-5.0595,-5.0559,-5.0559,-5.0538,-5.0539,-5.0446,-5.0528,-5.0528,-5.0528,-5.0528,0,-5.0958,-5.0914,-5.0904,-5.0873,-5.0824,-5.0819,-5.0769,-5.0755,-5.073,-5.0695,-5.0698,-5.0664,-5.065,-5.0614,-5.0604,-5.055,-5.054,-5.0531,-5.0528,-5.0529,-5.053,-5.0512,-5.0515,-5.0526,-5.0526,-5.0527,-5.0527,0,-5.0889,-5.088,-5.0827,-5.0801,-5.0794,-5.0758,-5.0735,-5.0704,-5.0693,-5.0649,-5.0638,-5.0618,-5.0576,-5.0561,-5.0509,-5.0502,-5.0439,-5.0441,-5.045,-5.0449,-5.0413,-5.0416,-5.0303,-5.0287,-5.0382,-5.0381,-5.038,0,-5.084,-5.0807,-5.0779,-5.0758,-5.0742,-5.0707,-5.0684,-5.0678,-5.0653,-5.0618,-5.0591,-5.055,-5.0516,-5.0448,-5.0427,-5.0387,-5.0387,-5.035,-5.038,-5.0383,-5.0384,-5.0385,-5.0381,-5.0344,-5.0343,-5.0342,-5.0341,0,-5.0753,-5.0751,-5.072,-5.0687,-5.0661,-5.0634,-5.0607,-5.0589,-5.0579,-5.0551,-5.0509,-5.0484,-5.0432,-5.039,-5.035,-5.0331,-5.0333,-5.0333,-5.0322,-5.0321,-5.0327,-5.0322,-5.0432,-5.0334,-5.0335,-5.0335,-5.0336,-5.0336,-5.0691,-5.0662,-5.0639,-5.0603,-5.0584,-5.056,-5.0531,-5.0517,-5.0484,-5.0443,-5.0441,-5.0396,-5.0367,-5.0314,-5.0293,-5.0256,-5.0266,-5.025,-5.0246,-5.0242,-5.0238,-5.0336,-5.0249,-5.0249,-5.0249,-5.0249,-5.0249,0,-5.0603,-5.0589,-5.0557,-5.0522,-5.0494,-5.0504,-5.0476,-5.0451,-5.0412,-5.0387,-5.0355,-5.0307,-5.0267,-5.0245,-5.0205,-5.0179,-5.0179,-5.0168,-5.0169,-5.0164,-5.0233,-5.0245,-5.0169,-5.0169,-5.0169,-5.0169,-5.0169,-5.0169,-5.0553,-5.0505,-5.0501,-5.0442,-5.0428,-5.0386,-5.0369,-5.0347,-5.0326,-5.0274,-5.0242,-5.023,-5.0205,-5.0163,-5.0126,-5.0121,-5.0104,-5.0093,-5.0087,-5.0151,-5.0159,-5.0167,-5.0179,-5.009,-5.009,-5.0022,-5.0021,-5.002]}]]